Dewpoint
51 51 51 51 51 51 51 51 51 51 52 52 52 53 52 53 53 47 43 39 47 54 55 36 27 21 20 19 25 25 23 22 23 24 26 29 27 27 26 24 26 29 33 34 35
51 51 51 50 51 50 50 51 51 51 51 52 52 52 53 53 49 46 44 53 58 60 40 31 18 15 17 21 22 20 19 20 23 23 22 24 23 23 23 23 26 30 35 38 35
50 51 50 51 51 50 50 50 51 51 51 52 52 52 53 52 45 41 57 55 60 58 29 27 29 29 13 18 19 18 18 19 20 22 23 22 21 21 21 24 27 28 31 35 38
50 51 51 51 51 51 50 51 51 51 52 51 51 52 52 50 31 35 61 57 60 41 31 36 38 24 10 13 14 13 16 18 18 20 20 19 20 19 18 21 30 33 34 35 34
50 51 51 51 51 51 51 51 51 51 51 51 51 52 50 43 40 44 60 59 49 41 41 41 40 26 8 8 10 13 14 14 17 18 18 19 19 18 17 22 28 34 36 36 34
51 50 51 51 51 51 51 51 50 51 51 51 51 52 48 26 29 51 50 49 38 37 35 38 32 23 18 14 16 15 14 15 15 15 15 15 15 17 18 23 29 36 35 35 36
51 51 51 51 51 51 51 52 52 53 51 51 51 49 45 31 36 47 41 36 33 33 34 33 22 19 21 16 19 17 14 15 15 13 12 14 12 12 17 18 18 25 31 36 36
51 51 51 51 51 51 52 54 54 53 53 51 52 48 39 40 38 33 37 31 31 31 31 26 23 22 19 18 15 15 15 12 13 15 15 12 10 13 16 16 17 20 27 32 34
51 52 51 51 52 52 53 54 53 54 54 53 47 46 38 47 40 34 32 32 30 31 29 22 22 20 18 16 14 14 11 11 12 13 14 12 11 14 16 16 18 19 21 22 26
51 51 51 51 52 53 54 54 53 52 51 49 45 41 41 37 27 23 24 28 25 28 24 23 19 17 17 15 11 11 11 12 12 12 13 12 13 14 14 17 16 17 22 24 26
50 51 51 51 52 53 51 46 42 45 45 37 39 36 37 37 23 17 19 25 28 25 21 21 16 15 16 17 16 15 14 13 14 14 17 15 17 17 17 16 15 18 22 23 26
50 49 50 51 51 51 48 42 42 33 29 42 40 39 40 40 33 24 27 24 24 19 22 19 17 17 18 18 18 18 16 14 15 18 15 14 14 15 18 18 19 21 22 23 26
50 50 50 51 51 49 44 43 44 41 32 32 35 37 38 38 35 25 27 26 22 21 21 18 18 20 18 17 16 15 16 14 14 21 18 15 14 16 20 20 20 23 23 25 25
50 50 50 50 44 43 39 40 37 40 31 31 30 29 28 22 23 24 27 24 23 20 20 18 18 18 18 16 16 12 14 16 20 20 15 20 14 17 19 18 18 19 20 24 26
49 49 49 48 42 38 39 41 40 40 26 34 24 22 20 20 24 24 24 25 21 19 20 18 18 18 17 21 28 22 22 18 20 19 17 16 14 15 18 17 18 18 19 20 24
48 49 49 47 46 43 43 40 37 35 29 29 20 19 19 21 21 22 25 25 24 21 20 19 24 24 25 30 31 31 26 20 19 18 14 15 14 16 16 15 18 20 23 20 24
47 48 48 43 37 40 40 38 31 30 34 25 22 22 18 16 16 19 22 20 18 16 19 30 29 32 32 30 31 34 31 23 17 14 14 17 21 16 26 26 29 28 26 25 32
47 48 48 44 40 42 40 34 27 29 26 25 22 21 21 19 19 21 21 21 28 29 32 31 26 33 36 36 33 34 33 26 20 19 17 28 23 24 27 30 31 31 26 29 34
46 40 45 44 42 44 37 31 29 32 27 22 22 20 19 18 20 22 22 28 30 30 28 31 29 33 35 35 36 34 31 34 31 33 29 26 25 28 30 31 31 30 30 31 32
39 41 44 46 45 40 34 33 31 32 23 20 20 21 17 17 19 22 22 31 30 32 31 32 28 31 31 35 36 36 37 29 34 26 24 24 24 24 31 32 33 33 32 32 31
38 38 43 46 41 37 31 31 31 26 23 21 22 21 22 23 22 21 21 24 31 31 33 33 31 29 29 31 32 34 33 34 33 34 27 23 20 31 33 33 36 34 32 34 36
36 30 39 39 31 33 27 29 31 24 25 25 27 26 25 25 23 22 23 27 31 31 31 36 32 26 25 24 31 35 35 35 29 28 32 29 25 35 31 32 33 33 34 34 36
33 35 42 36 29 30 29 30 27 25 25 23 26 26 25 22 21 27 26 26 28 28 32 34 26 21 21 25 31 28 34 35 35 34 29 27 25 29 35 33 36 33 34 36 36
35 36 35 36 34 32 31 32 29 30 24 23 22 24 23 23 24 23 24 28 29 33 39 33 24 22 21 23 27 29 30 32 33 28 29 29 27 30 33 35 37 37 36 35 35
39 35 32 30 29 30 31 31 28 24 20 21 22 23 24 23 23 23 27 28 29 38 33 29 26 27 29 29 29 27 26 27 30 30 27 26 27 32 34 36 37 39 40 42 41
34 33 33 31 31 34 33 32 31 29 22 21 23 23 23 21 23 25 27 27 27 29 27 31 26 30 29 26 27 25 28 29 33 34 35 32 29 36 35 38 38 38 39 38 39
36 38 35 33 32 34 32 31 35 31 26 20 20 23 22 23 28 27 27 28 27 26 25 27 26 25 24 29 27 24 34 35 35 36 34 29 35 36 35 35 35 38 36 34 37
Lifted_Index
11 10 10 9 9 9 9 9 9 10 11 11 12 12 12 12 12 12 12 11 11 10 9 9 9 9 8 8 8 8 7 6 6 6 6 5 4 3 3 3 3 2 1 2 3
11 11 10 10 9 9 9 10 10 10 11 11 12 12 12 12 11 11 11 10 9 8 9 9 9 9 8 7 8 8 7 6 7 7 7 6 5 3 3 4 3 2 1 2 2
12 11 10 10 10 10 10 10 11 11 11 12 12 12 12 11 10 8 8 8 8 8 9 10 10 9 8 7 7 7 7 7 7 7 7 6 5 4 4 4 4 3 2 1 1
12 11 10 10 10 10 11 11 11 11 12 12 12 12 12 10 8 6 6 6 7 9 9 9 8 8 8 7 8 8 8 8 8 8 7 7 6 5 5 5 5 3 2 1 1
12 12 11 10 10 11 11 11 12 12 12 12 12 11 11 9 7 6 6 6 8 9 8 7 7 7 7 7 7 8 8 8 8 8 7 7 6 5 5 5 5 3 2 2 2
12 12 11 11 12 12 11 11 11 11 12 12 11 11 10 8 7 6 6 7 8 8 7 7 7 7 7 7 7 7 7 8 8 7 7 6 6 6 5 5 4 3 2 2 2
13 12 12 12 12 12 12 11 11 11 11 11 11 10 10 8 7 7 7 7 8 7 7 7 7 7 7 6 6 6 6 6 6 6 6 6 5 5 5 4 4 3 2 2 2
13 12 12 12 12 12 12 11 11 10 11 11 10 10 9 8 8 7 7 7 7 7 7 7 7 7 7 6 6 6 5 5 5 5 5 4 5 5 4 4 3 3 3 3 2
13 12 12 12 12 11 11 10 9 9 10 10 10 8 7 7 7 8 7 7 7 6 6 7 7 7 7 6 5 5 4 4 4 4 4 3 4 5 4 3 3 4 4 3 3
14 13 12 12 11 10 9 9 8 8 9 9 9 7 6 6 7 8 8 8 7 7 7 7 7 6 6 5 4 4 4 4 4 4 3 3 4 4 4 3 3 4 4 4 4
14 13 13 12 11 10 8 8 8 8 8 8 8 7 6 6 6 7 8 8 7 7 7 7 6 5 5 4 4 3 4 4 4 3 3 3 3 4 3 3 3 4 4 4 4
14 14 13 12 11 9 8 7 7 7 7 7 7 6 6 6 6 7 8 7 7 7 7 7 6 5 5 4 4 3 3 3 3 3 3 3 3 3 2 2 3 4 4 4 4
13 13 13 12 10 8 7 7 7 7 7 6 6 6 6 6 6 7 7 7 7 6 7 6 6 5 4 4 3 3 2 2 2 2 3 2 2 2 2 2 3 4 4 4 4
12 13 13 13 10 8 7 7 7 6 5 5 5 6 6 6 6 6 6 6 6 6 6 6 5 4 4 3 2 2 1 1 1 2 2 2 2 2 2 2 2 3 3 3 3
12 12 13 13 11 8 7 7 7 5 4 4 5 6 6 6 6 6 6 6 6 6 5 5 4 3 2 2 1 1 1 1 1 1 2 2 2 2 2 2 2 3 3 3 2
11 11 12 12 11 9 8 7 6 4 3 3 5 5 6 5 5 5 5 5 5 5 5 4 3 2 1 1 0 0 0 0 1 1 1 2 2 2 2 2 2 2 2 2 2
11 10 10 11 10 9 8 7 5 4 3 3 4 4 5 4 5 5 4 4 4 4 4 3 2 1 1 0 0 -0 -0 -0 0 0 1 1 1 2 2 1 1 2 2 2 2
10 10 9 9 9 8 7 6 5 4 4 4 4 3 3 3 4 4 3 3 3 3 3 2 2 1 0 0 0 0 -0 -0 -0 0 1 1 1 1 1 1 1 1 2 2 2
9 9 8 7 8 8 7 6 5 4 4 4 4 3 2 3 4 4 3 3 3 2 2 2 1 0 -0 -0 -0 -0 -0 -0 -0 0 1 1 1 1 1 1 1 1 1 1 1
8 8 6 6 6 7 7 6 5 5 5 6 5 4 3 4 4 4 3 3 3 3 2 2 1 1 0 -0 -0 -0 -0 -0 -0 -0 0 1 1 1 1 0 1 1 1 1 1
8 7 6 5 6 7 6 6 5 6 6 6 5 5 4 5 5 4 4 4 4 4 3 2 2 1 1 -0 -0 -1 -0 -0 -0 -0 -0 0 0 0 0 0 0 1 1 1 1
7 7 6 5 6 7 6 6 6 6 6 6 6 5 5 5 5 5 5 5 5 4 3 3 2 2 1 0 -0 -0 -0 -0 0 0 -0 0 0 -0 -0 -0 -0 0 1 1 1
7 7 6 6 6 6 6 6 6 6 6 6 6 5 5 5 5 5 5 5 5 4 3 2 2 2 1 0 -0 -0 -0 0 0 0 0 0 0 0 -0 -0 -0 0 0 1 1
8 7 6 6 6 6 6 6 6 6 6 6 6 6 5 5 6 6 6 5 4 3 2 2 2 2 1 1 0 0 -0 0 0 0 0 1 1 1 1 1 0 0 0 1 1
8 7 7 6 6 5 5 5 5 6 6 6 6 6 6 6 6 6 6 5 4 3 2 2 2 1 1 1 1 0 -0 -0 -0 0 0 1 1 1 1 1 1 1 1 1 1
8 8 7 6 5 5 5 5 5 5 6 6 6 7 7 7 7 7 6 5 4 3 2 2 2 1 1 1 1 1 0 -0 -0 -0 0 0 1 1 1 1 1 1 1 1 1
9 8 7 6 5 5 4 4 4 5 6 7 7 8 8 8 7 7 6 5 4 4 3 2 2 2 2 1 1 1 0 -0 -0 -0 -0 0 0 1 1 1 1 1 1 2 2